Regional Weather Roundup
Issued by NWS

Home | Current Version | Previous Version | Graphics & Text | Print | Product List | Glossary On
Versions: 1 2 3 4 5 6 7 8 9 10 11 12 13 14 15 16 17 18 19 20 21 22 23 24 25 26 27 28 29 30 31 32 33 34 35 36 37 38 39 40 41 42 43 44 45 46 47 48 49 50
000
ASUS45 KBOU 180807
RWRCO

WEATHER ROUNDUP FOR COLORADO
NATIONAL WEATHER SERVICE DENVER/BOULDER CO
200 AM MDT SAT APR 18 2015

NOTE: "FAIR" INDICATES FEW OR NO CLOUDS BELOW 12000 FEET WITH NO
SIGNIFICANT WEATHER AND/OR OBSTRUCTIONS TO VISIBILITY.

COZ001>005-013-030-031-180900-
...NORTHWEST COLORADO...

CITY           SKY/WX    TMP DP  RH WIND       PRES   REMARKS
CRAIG          CLOUDY    36  32  85 SW8       30.03S
HAYDEN         NOT AVBL
MEEKER         CLOUDY    36  34  92 MISG      30.04S
MOUNT WERNER   NOT AVBL
STEAMBOAT SPGS CLOUDY    31  24  76 CALM      30.01F
WALDEN         CLOUDY    28  25  86 W3        30.00F
$$

COZ006>008-011-180900-
...WEST CENTRAL VALLEYS...

CITY           SKY/WX    TMP DP  RH WIND       PRES   REMARKS
GRAND JUNCTION CLOUDY    36  36 100 S6        30.05F
MONTROSE       CLOUDY    32  31  96 N5        30.07F WCI  27
EAGLE          CLOUDY    30  30 100 CALM      30.06S
RIFLE          CLOUDY    35  32  88 SE6       30.06S WCI  30
DELTA          CLOUDY    36  35  98 S3        30.06F
NUCLA          FOG       32  32 100 CALM      30.08F VSB 1/4
$$

COZ017>023-064>068-180900-
...SOUTHWEST COLORADO...

CITY           SKY/WX    TMP DP  RH WIND       PRES   REMARKS
DURANGO        LGT SNOW  32  32 100 CALM      30.01F VSB 3/4
CORTEZ         LGT SNOW  33  32  96 N3        30.03R VSB 1
PAGOSA SPRINGS CLOUDY    28  18  67 CALM      30.01F
TELLURIDE      FOG       24  24  99 CALM      30.04S VSB 1/2
WOLF CREEK PAS MOCLDY    12  10  92 CALM      30.03S
$$

COZ009-010-012-014-032>034-037-058>063-180900-
...CENTRAL COLORADO...

CITY           SKY/WX    TMP DP  RH WIND       PRES   REMARKS
ASPEN          MOCLDY    20  16  84 S8        30.01F WCI  10
BUENA VISTA    CLOUDY    24  16  73 N8        30.03F WCI  15
COPPER MTN     CLOUDY    19   9  63 CALM      30.02F
BERTHOUD PASS  LGT SNOW  14   5  67 E8        30.03F WCI   3
COTTONWOOD PAS CLOUDY    27  14  59 W10       30.02F WCI  17
GUNNISON       MOCLDY    21  18  86 CALM      30.07F
KREMMLING      MOCLDY    30  23  74 SW3       30.02F
LEADVILLE      LGT SNOW  15  13  91 CALM      30.01F FOG
MONARCH PASS   CLOUDY    14  12  92 MISG      30.11F
SALIDA         CLOUDY    25  17  72 W6        30.12F WCI  18
SUNLIGHT       CLOUDY    19  18  93 CALM      30.06F
WILKERSON PASS CLOUDY    19  18  93 E3        30.03F FOG
$$

COZ069>075-180900-
...SAN LUIS VALLEY/SANGRE DE CRISTO MOUNTAINS...

CITY           SKY/WX    TMP DP  RH WIND       PRES   REMARKS
ALAMOSA        CLOUDY    25  21  85 E3        30.02S
LA VETA PASS   PTCLDY    18  12  79 MISG      30.00F
SAGUACHE       PTCLDY    25  19  80 NW13      30.04F WCI  13
$$

COZ035-036-038>040-180900-
...NORTHERN COLORADO FRONT RANGE...

CITY           SKY/WX    TMP DP  RH WIND       PRES   REMARKS
DENVER INTL AP MOCLDY    35  34  96 SE8       30.01S WCI  29
DMNS CITY PARK   N/A     38  35  89 NE2       30.00F
AURORA         MOCLDY    37  37 100 SE5       30.01F
FRONT RANGE AP MOCLDY    37  36  93 S3        30.01F
ERIE MUNI ARPT CLOUDY    40  37  89 CALM      30.02S
BOULDER MUN AP CLOUDY    41  36  81 CALM      30.02S
CENTENNIAL     LGT RAIN  36  36 100 E5        30.00F
BROOMFIELD     CLOUDY    39  36  87 CALM      30.02S
FORT COLLINS   CLOUDY    39  34  81 NE9       30.03S
LONGMONT       CLOUDY    42  36  78 N3        30.03S
$$

COZ041-046-047-076>085-087-088-180900-
...PIKES PEAK/PALMER DIVIDE AND SOUTHERN FOOTHILLS...

CITY           SKY/WX    TMP DP  RH WIND       PRES   REMARKS
COLO. SPRINGS  MOCLDY    37  31  78 N15       29.99F
A. F. ACADEMY  MOCLDY    32  32 100 N7        29.99F WCI  26
ELLICOTT       MOCLDY   N/A N/A N/A N9        29.97F
FALCON         MOCLDY    33  32  96 N12       29.99F WCI  24
FORT CARSON    PTCLDY    36  31  84 N12       29.97F
LIMON          PTCLDY    34  33  96 NW12      29.98F WCI  25
MONUMENT HILL  FOG       32  32 100 CALM      29.99F VSB 1/4
TRINIDAD       MOCLDY    40  25  55 CALM      29.98F
$$

COZ042>045-048>051-090-091-180900-
...NORTHEAST COLORADO...

CITY           SKY/WX    TMP DP  RH WIND       PRES   REMARKS
GREELEY ARPT   CLOUDY    39  32  75 NW13      30.00F
AKRON          MOCLDY    39  39 100 N15       29.97F
BURLINGTON     MOCLDY    44  41  89 NW13      29.94F
WRAY           CLOUDY    46  43  90 NW13      29.96F
STERLING       MOCLDY    43  39  87 N13G20    29.98S
HOLYOKE        LGT RAIN  46  43  87 NW9G17    29.98F
FORT MORGAN    MOCLDY    38  36  92 N3        30.00F
$$

COZ086-089-092>099-180900-
...SOUTHEAST COLORADO...

CITY           SKY/WX    TMP DP  RH WIND       PRES   REMARKS
PUEBLO         MOCLDY    39  34  82 NW7       29.97F
LA JUNTA       MOCLDY    40  36  86 SW7       29.97F
LAMAR          PTCLDY    42  38  85 N5        29.92F
SPRINGFIELD      N/A     37  34  89 NW7       29.94F
$$


USA.gov is the U.S. government's official web portal to all federal, state and local government web resources and services.